Location: ČR
(50.0000°N, 15.0000°E)
Time: 09:13:47
(UTC+00:00)

A-11 Canister half - All Passes

Search period start: 21 October 2021 00:00
Search period end: 31 October 2021 00:00
Orbit: 1515 x 1684 km, 47.2° (Epoch: 20 October)

Date Brightness Start Highest point End Pass type
(mag) Time Alt. Az. Time Alt. Az. Time Alt. Az.
21 Oct - 00:30:51 10° W 00:39:07 34° SW 00:47:09 10° SSE night (unlit)
21 Oct - 15:53:36 10° S 16:00:05 20° SE 16:06:29 10° E daylight
21 Oct - 17:53:49 10° SW 18:03:20 50° SSE 18:12:34 10° E visible
21 Oct - 19:57:46 10° WSW 20:07:44 75° S 20:17:19 10° E visible
21 Oct - 22:02:42 10° W 22:12:26 68° SSW 22:21:46 10° ESE visible
22 Oct - 00:07:51 10° W 00:16:17 36° SW 00:24:29 10° SSE night (unlit)
22 Oct - 15:31:09 10° SSE 15:37:17 18° SE 15:43:20 10° E daylight
22 Oct - 17:30:59 10° SW 17:40:26 48° SSE 17:49:39 10° ENE visible
22 Oct - 19:34:50 10° WSW 19:44:48 75° S 19:54:25 10° E visible
22 Oct - 21:39:45 10° W 21:49:31 69° SSW 21:58:54 10° ESE visible
22 Oct - 23:44:53 10° W 23:53:27 38° SW 00:01:47 10° SSE night (unlit)
23 Oct - 01:54:16 10° WSW 01:56:00 11° WSW 01:57:43 10° SW night (unlit)
23 Oct - 15:08:44 10° SSE 15:14:29 17° SE 15:20:09 10° E daylight
23 Oct - 17:08:10 10° SW 17:17:34 46° SSE 17:26:43 10° ENE visible
23 Oct - 19:11:53 10° WSW 19:21:53 74° S 19:31:31 10° E visible
23 Oct - 21:16:47 10° W 21:26:37 71° SSW 21:36:04 10° ESE visible
23 Oct - 23:21:54 10° WNW 23:30:37 39° SW 23:39:05 10° SSE visible
24 Oct - 01:30:15 10° WSW 01:33:15 12° WSW 01:36:14 10° SW night (unlit)
24 Oct - 14:46:23 10° SSE 14:51:41 16° SE 14:56:55 10° E daylight
24 Oct - 16:45:21 10° SSW 16:54:41 44° SE 17:03:48 10° ENE visible
24 Oct - 18:48:57 10° WSW 18:58:57 73° S 19:08:38 10° E visible
24 Oct - 20:53:50 10° W 21:03:42 72° SSW 21:13:11 10° ESE visible
24 Oct - 22:58:55 10° WNW 23:07:47 41° SW 23:16:22 10° SSE visible
25 Oct - 01:06:38 10° W 01:10:29 13° WSW 01:14:17 10° SSW night (unlit)
25 Oct - 14:24:07 10° SSE 14:28:53 14° SE 14:33:37 10° E daylight
25 Oct - 16:22:33 10° SSW 16:31:49 43° SE 16:40:52 10° ENE visible
25 Oct - 18:26:01 10° WSW 18:36:02 72° SSE 18:45:43 10° E visible
25 Oct - 20:30:53 10° W 20:40:47 73° SSW 20:50:19 10° ESE visible
25 Oct - 22:35:57 10° WNW 22:44:56 43° SW 22:53:37 10° SSE visible
26 Oct - 00:43:12 10° W 00:47:43 14° SW 00:52:11 10° SSW night (unlit)
26 Oct - 14:01:57 10° SSE 14:06:06 13° ESE 14:10:12 10° E daylight
26 Oct - 15:59:47 10° SSW 16:08:56 41° SE 16:17:55 10° ENE visible
26 Oct - 18:03:05 10° WSW 18:13:07 71° SSE 18:22:49 10° E visible
26 Oct - 20:07:55 10° W 20:17:52 74° S 20:27:26 10° ESE visible
26 Oct - 22:12:58 10° WNW 22:22:05 45° SW 22:30:53 10° SE visible
27 Oct - 00:19:53 10° W 00:24:57 16° SW 00:29:57 10° SSW night (unlit)
27 Oct - 13:39:58 10° SE 13:43:19 12° ESE 13:46:39 10° ESE daylight
27 Oct - 15:37:01 10° SSW 15:46:04 39° SE 15:54:58 10° ENE daylight
27 Oct - 17:40:10 10° WSW 17:50:11 70° SSE 17:59:54 10° E visible
27 Oct - 19:44:58 10° W 19:54:57 75° S 20:04:34 10° ESE visible
27 Oct - 21:50:01 10° WNW 21:59:13 47° SSW 22:08:08 10° SE visible
27 Oct - 23:56:37 10° W 00:02:11 17° SW 00:07:39 10° SSW night (unlit)
28 Oct - 13:18:18 10° SE 13:20:32 11° ESE 13:22:45 10° ESE daylight
28 Oct - 15:14:15 10° SSW 15:23:12 37° SE 15:32:02 10° E daylight
28 Oct - 17:17:14 10° WSW 17:27:15 69° SSE 17:37:00 10° E visible
28 Oct - 19:22:00 10° W 19:32:01 75° S 19:41:41 10° ESE visible
28 Oct - 21:27:02 10° WNW 21:36:22 49° SSW 21:45:21 10° SE visible
28 Oct - 23:33:25 10° W 23:39:24 18° SW 23:45:17 10° SSW night (unlit)
29 Oct - 14:51:30 10° SSW 15:00:21 36° SE 15:09:03 10° E daylight
29 Oct - 16:54:19 10° WSW 17:04:20 67° SSE 17:14:05 10° E visible
29 Oct - 18:59:03 10° W 19:09:06 76° S 19:18:47 10° ESE visible
29 Oct - 21:04:04 10° WNW 21:13:30 51° SSW 21:22:35 10° SE visible
29 Oct - 23:10:15 10° W 23:16:37 20° SW 23:22:52 10° S visible
30 Oct - 14:28:47 10° SSW 14:37:29 34° SE 14:46:05 10° E daylight
30 Oct - 16:31:25 10° WSW 16:41:25 66° SSE 16:51:11 10° E visible
30 Oct - 18:36:06 10° W 18:46:10 76° S 18:55:54 10° ESE visible
30 Oct - 20:41:07 10° W 20:50:37 53° SSW 20:59:47 10° SE visible
30 Oct - 22:47:07 10° W 22:53:50 21° SW 23:00:24 10° S visible
